Regional Weather Roundup
Issued by NWS

Home | Current Version | Previous Version | Text Only | Print | Product List | Glossary Off
Versions: 1 2 3 4 5 6 7 8 9 10 11 12 13 14 15 16 17 18 19 20 21 22 23 24 25 26 27 28 29 30 31 32 33 34 35 36 37 38 39 40 41 42 43 44 45 46 47 48 49 50

000
ASUS45 KBOU 012207
RWRCO

WEATHER ROUNDUP FOR COLORADO
NATIONAL WEATHER SERVICE DENVER/BOULDER CO
400 PM MDT FRI AUG 01 2014

NOTE: "FAIR" INDICATES FEW OR NO CLOUDS BELOW 12000 FEET WITH NO
SIGNIFICANT WEATHER AND/OR OBSTRUCTIONS TO VISIBILITY.

COZ001>005-013-030-031-012300-
...NORTHWEST COLORADO...

CITY           SKY/WX    TMP DP  RH WIND       PRES   REMARKS
CRAIG          MOSUNNY   77  42  28 NE5       30.22F
HAYDEN         MOSUNNY   79  37  22 E8        30.24F
MEEKER         PTSUNNY   76  46  34 SW12G17   30.25S
MOUNT WERNER   NOT AVBL
STEAMBOAT SPGS MOSUNNY   77  44  29 CALM      30.28S
WALDEN         MOSUNNY   70  32  24 N6        30.37S
$$

COZ006>008-011-012300-
...WEST CENTRAL VALLEYS...

CITY           SKY/WX    TMP DP  RH WIND       PRES   REMARKS
GRAND JUNCTION PTSUNNY   87  45  23 NW12G21   30.13S
MONTROSE       LGT RAIN  79  50  36 NW12      30.23R
EAGLE          PTSUNNY   73  48  40 W5        30.30S
RIFLE          PTSUNNY   77  46  33 NW9       30.21R
DELTA          PTSUNNY   82  46  27 E10       30.19S HAZE
NUCLA          PTSUNNY   84  39  20 N12       30.23F
$$

COZ017>023-064>068-012300-
...SOUTHWEST COLORADO...

CITY           SKY/WX    TMP DP  RH WIND       PRES   REMARKS
DURANGO        PTSUNNY   75  50  41 N16G24    30.25F
CORTEZ         MOSUNNY   83  50  31 VRB7      30.19S
PAGOSA SPRINGS PTSUNNY   61  53  76 N6        30.36S
TELLURIDE      PTSUNNY   66  48  52 W12G17    30.42S
WOLF CREEK PAS NOT AVBL
$$

COZ009-010-012-014-032>034-037-058>063-012300-
...CENTRAL COLORADO...

CITY           SKY/WX    TMP DP  RH WIND       PRES   REMARKS
ASPEN          PTSUNNY   65  47  52 VRB3      30.37F
BUENA VISTA    RAIN      53  49  85 NW8       30.49R
COPPER MTN     PTSUNNY   54  41  62 W5        30.66S THUNDER
BERTHOUD PASS  FOG       37  37 100 MISG      30.71S VSB<1/4
COTTONWOOD PAS LGT RAIN  50  45  81 CALM      30.58R
GUNNISON       PTSUNNY   61  46  59 N6        30.39F
KREMMLING      MOSUNNY   73  36  25 NW3       30.33F
LEADVILLE      PTSUNNY   49  44  83 S13       30.53S
MONARCH PASS   LGT RAIN  43  41  93 E17       30.74S VSB 1
SALIDA         CLOUDY    61  55  79 NW14G25   30.48R
SUNLIGHT       PTSUNNY   55  50  82 CALM      30.59S
WILKERSON PASS LGT RAIN  43  39  87 E5        30.67R
$$

COZ069>075-012300-
...SAN LUIS VALLEY/SANGRE DE CRISTO MOUNTAINS...

CITY           SKY/WX    TMP DP  RH WIND       PRES   REMARKS
ALAMOSA        CLOUDY    62  51  67 W13       30.34R
LA VETA PASS   CLOUDY    50  46  87 NE6       30.54S
SAGUACHE       NOT AVBL
$$

COZ035-036-038>040-012300-
...NORTHERN COLORADO FRONT RANGE...

CITY           SKY/WX    TMP DP  RH WIND       PRES   REMARKS
DENVER INTL AP PTSUNNY   80  40  23 SE13G18   30.26S
DMNS CITY PARK   N/A     79  41  25 E8G14     30.25S
AURORA         PTSUNNY   76  46  34 S8G17     30.28S
FRONT RANGE AP NOT AVBL
ERIE MUNI ARPT PTSUNNY   82  38  20 SE3       30.24R
BOULDER MUN AP PTSUNNY   77  43  29 NE3       30.24S
CENTENNIAL     CLOUDY    75  41  29 S9        30.29S
BROOMFIELD     PTSUNNY   81  39  22 E3        30.28S
FORT COLLINS   PTSUNNY   82  48  30 SE10      30.22F
LONGMONT       PTSUNNY   81  42  25 CALM      30.25S
$$

COZ041-046-047-076>085-087-088-012300-
...PIKES PEAK/PALMER DIVIDE AND SOUTHERN FOOTHILLS...

CITY           SKY/WX    TMP DP  RH WIND       PRES   REMARKS
COLO. SPRINGS  CLOUDY    71  50  47 VRB5      30.33F
A. F. ACADEMY  CLOUDY    68  47  46 S10       30.34S
ELLICOTT       CLOUDY    71  44  37 S5        30.32S
FALCON         CLOUDY    67  45  44 S6        30.38S
FORT CARSON    CLOUDY    70  52  53 S6        30.31F
LIMON          MOSUNNY   80  40  23 S12G20    30.27S
MONUMENT HILL  CLOUDY    66  43  42 SE10      30.37S
TRINIDAD       LGT RAIN  67  59  75 W14       30.27F
$$

COZ042>045-048>051-090-091-012300-
...NORTHEAST COLORADO...

CITY           SKY/WX    TMP DP  RH WIND       PRES   REMARKS
GREELEY ARPT   PTSUNNY   81  46  30 CALM      30.22F
AKRON          PTSUNNY   82  42  24 E6        30.21F
BURLINGTON     MOSUNNY   86  42  21 VRB3      30.19S
WRAY             N/A     86  44  22 CALM      30.15S
STERLING       PTSUNNY   86  50  28 CALM      30.17S
HOLYOKE        SUNNY     88  46  23 SE9       30.16S
FORT MORGAN    PTSUNNY   82  43  25 CALM      30.21F
$$

COZ086-089-092>099-012300-
...SOUTHEAST COLORADO...

CITY           SKY/WX    TMP DP  RH WIND       PRES   REMARKS
PUEBLO         LGT RAIN  66  63  90 W16       30.25R
LA JUNTA       PTSUNNY   80  54  40 E9        30.19S
LAMAR          MOSUNNY   85  51  31 E12       30.15S
SPRINGFIELD      N/A     81  49  32 SE10      30.19F
$$



USA.gov is the U.S. government's official web portal to all federal, state and local government web resources and services.